DLH44V EDWE-EDDW

Flight info

Callsign DLH44V
Flight time N/A
Altitude 9000
Route SUQIF1G SUQIF DCT OKWEL DCT PIXUR PIXUR3P
Aircraft AT46/M-SDFGIRY/S

Departure

Time 2026-04-25 08:33
Airport Emden Airport (EDWE)

Arrival

Time N/A
Airport Bremen Airport (EDDW)
Time Latitude Longitude Altitude Speed Heading
2026-04-25 08:31 53.38974 7.23036 5 ft 9 kts 64°
2026-04-25 08:31 53.39008 7.23068 7 ft 7 kts 11°
2026-04-25 08:32 53.39072 7.23084 10 ft 8 kts
2026-04-25 08:32 53.39112 7.23118 11 ft 11 kts 64°
2026-04-25 08:32 53.39159 7.23336 11 ft 23 kts 66°
2026-04-25 08:32 53.39227 7.23572 8 ft 21 kts 36°
2026-04-25 08:33 53.39279 7.23572 8 ft 3 kts 292°
2026-04-25 08:33 53.39222 7.23252 13 ft 70 kts 251°
2026-04-25 08:33 53.38956 7.22158 431 ft 115 kts 247°
2026-04-25 08:33 53.38579 7.20747 1182 ft 145 kts 257°
2026-04-25 08:34 53.38314 7.19001 1967 ft 168 kts 260°
2026-04-25 08:34 53.38006 7.16957 2758 ft 190 kts 259°
2026-04-25 08:34 53.37648 7.14768 3516 ft 197 kts 260°
2026-04-25 08:34 53.37733 7.12530 3989 ft 197 kts 298°
2026-04-25 08:35 53.38756 7.11027 4460 ft 208 kts 338°
2026-04-25 08:35 53.40232 7.11063 4933 ft 224 kts 15°
2026-04-25 08:35 53.41488 7.12746 5382 ft 243 kts 51°
2026-04-25 08:35 53.42032 7.15449 5833 ft 256 kts 84°
2026-04-25 08:36 53.41757 7.18431 6293 ft 263 kts 105°
2026-04-25 08:36 53.41030 7.21288 6755 ft 266 kts 119°
2026-04-25 08:36 53.39971 7.23835 7186 ft 269 kts 129°
2026-04-25 08:36 53.38761 7.26205 7630 ft 270 kts 132°
2026-04-25 08:37 53.37501 7.28580 8090 ft 271 kts 132°
2026-04-25 08:37 53.36248 7.30963 8540 ft 272 kts 131°
2026-04-25 08:37 53.35029 7.33367 8993 ft 273 kts 130°
2026-04-25 08:37 53.33773 7.35887 9088 ft 287 kts 130°
2026-04-25 08:38 53.32474 7.38499 9131 ft 298 kts 130°
2026-04-25 08:38 53.31170 7.41111 9144 ft 294 kts 129°
2026-04-25 08:38 53.29867 7.43785 9148 ft 296 kts 129°
2026-04-25 08:38 53.28550 7.46470 9156 ft 297 kts 129°
2026-04-25 08:39 53.27242 7.49119 9158 ft 298 kts 130°
2026-04-25 08:39 53.25915 7.51777 9158 ft 298 kts 130°
2026-04-25 08:39 53.24594 7.54412 9161 ft 298 kts 130°
2026-04-25 08:39 53.23255 7.57093 9163 ft 298 kts 130°
2026-04-25 08:40 53.22064 7.59890 9154 ft 296 kts 113°
2026-04-25 08:40 53.21500 7.63171 9163 ft 293 kts 98°
2026-04-25 08:40 53.21293 7.66499 9171 ft 291 kts 90°
2026-04-25 08:40 53.21210 7.69904 9173 ft 292 kts 89°
2026-04-25 08:41 53.21123 7.73284 9086 ft 295 kts 90°
2026-04-25 08:41 53.20982 7.76706 9029 ft 294 kts 92°
2026-04-25 08:41 53.20813 7.80110 9012 ft 292 kts 92°
2026-04-25 08:41 53.20652 7.83466 9005 ft 290 kts 92°
2026-04-25 08:42 53.20495 7.86800 8999 ft 289 kts 92°
2026-04-25 08:42 53.20331 7.90143 9001 ft 288 kts 92°
2026-04-25 08:42 53.20179 7.93452 8993 ft 287 kts 90°
2026-04-25 08:42 53.20100 7.96786 8990 ft 286 kts 90°
2026-04-25 08:43 53.19950 8.00071 8994 ft 287 kts 94°
2026-04-25 08:43 53.19663 8.03385 8992 ft 288 kts 98°
2026-04-25 08:43 53.19261 8.06635 8994 ft 289 kts 101°
2026-04-25 08:43 53.18786 8.09917 8996 ft 289 kts 102°
2026-04-25 08:44 53.18291 8.13135 8992 ft 289 kts 103°
2026-04-25 08:44 53.17707 8.16354 8993 ft 289 kts 110°
2026-04-25 08:44 53.16958 8.19455 8993 ft 290 kts 108°
2026-04-25 08:44 53.16324 8.22604 8993 ft 288 kts 108°
2026-04-25 08:45 53.15603 8.25755 8991 ft 290 kts 109°
2026-04-25 08:45 53.14938 8.28912 8989 ft 289 kts 108°
2026-04-25 08:45 53.14235 8.32083 8990 ft 290 kts 109°
2026-04-25 08:45 53.13553 8.35215 8765 ft 291 kts 108°
2026-04-25 08:46 53.12871 8.38359 8388 ft 285 kts 109°
2026-04-25 08:46 53.12193 8.41421 8016 ft 282 kts 108°
2026-04-25 08:46 53.11536 8.44477 7643 ft 280 kts 108°
2026-04-25 08:46 53.10867 8.47525 7269 ft 279 kts 109°
2026-04-25 08:47 53.10207 8.50544 6902 ft 278 kts 108°
2026-04-25 08:47 53.09550 8.53554 6544 ft 277 kts 108°
2026-04-25 08:47 53.08890 8.56566 6144 ft 276 kts 108°
2026-04-25 08:47 53.08233 8.59570 5762 ft 275 kts 108°
2026-04-25 08:48 53.07580 8.62554 5395 ft 274 kts 108°
2026-04-25 08:48 53.06934 8.65505 5172 ft 268 kts 108°
2026-04-25 08:48 53.06308 8.68332 5072 ft 259 kts 109°
2026-04-25 08:48 53.05666 8.71111 5038 ft 252 kts 109°
2026-04-25 08:49 53.05029 8.73806 5019 ft 247 kts 110°
2026-04-25 08:49 53.04492 8.76438 4992 ft 238 kts 94°
2026-04-25 08:49 53.04568 8.78865 4724 ft 229 kts 81°
2026-04-25 08:49 53.04231 8.81472 4332 ft 230 kts 113°
2026-04-25 08:50 53.03578 8.83876 3963 ft 229 kts 110°
2026-04-25 08:50 53.03134 8.86345 3586 ft 216 kts 97°
2026-04-25 08:50 53.02876 8.88676 3389 ft 202 kts 95°
2026-04-25 08:50 53.02580 8.90827 3184 ft 183 kts 101°
2026-04-25 08:51 53.02284 8.92808 3075 ft 172 kts 99°
2026-04-25 08:51 53.02025 8.94704 3024 ft 163 kts 98°
2026-04-25 08:51 53.01781 8.96620 3009 ft 178 kts 98°
2026-04-25 08:51 53.01481 8.98598 3006 ft 174 kts 101°
2026-04-25 08:52 53.01207 9.00525 2986 ft 171 kts 98°
2026-04-25 08:52 53.00956 9.02429 2980 ft 169 kts 98°
2026-04-25 08:52 53.00692 9.04347 2990 ft 169 kts 99°
2026-04-25 08:52 53.00421 9.06241 2988 ft 169 kts 99°
2026-04-25 08:53 53.00111 9.08138 2979 ft 170 kts 103°
2026-04-25 08:53 52.99758 9.10011 2888 ft 174 kts 103°
2026-04-25 08:53 52.99727 9.11983 2692 ft 170 kts 65°
2026-04-25 08:53 53.00499 9.13308 2523 ft 160 kts 16°
2026-04-25 08:54 53.01538 9.13138 2347 ft 150 kts 326°
2026-04-25 08:54 53.02380 9.12143 2172 ft 150 kts 321°
2026-04-25 08:54 53.03207 9.11093 2005 ft 151 kts 319°
2026-04-25 08:54 53.03910 9.09882 2081 ft 151 kts 306°
2026-04-25 08:55 53.04358 9.08344 2167 ft 140 kts 289°
2026-04-25 08:55 53.04604 9.06838 2207 ft 131 kts 284°
2026-04-25 08:55 53.04763 9.05405 2239 ft 118 kts 281°
2026-04-25 08:55 53.04864 9.04128 2242 ft 106 kts 279°
2026-04-25 08:56 53.04924 9.02868 2406 ft 110 kts 274°
2026-04-25 08:56 53.04915 9.01674 2423 ft 111 kts 271°
2026-04-25 08:56 53.04874 9.00331 2354 ft 111 kts 272°
2026-04-25 08:56 53.04861 8.99060 2170 ft 109 kts 273°
2026-04-25 08:57 53.04859 8.97810 2004 ft 109 kts 272°
2026-04-25 08:57 53.04849 8.96535 1818 ft 110 kts 271°
2026-04-25 08:57 53.04824 8.95255 1627 ft 112 kts 271°
2026-04-25 08:57 53.04810 8.93963 1441 ft 112 kts 271°
2026-04-25 08:58 53.04796 8.92668 1325 ft 110 kts 272°
2026-04-25 08:58 53.04790 8.91417 1201 ft 108 kts 271°
2026-04-25 08:58 53.04776 8.90159 1066 ft 108 kts 271°
2026-04-25 08:58 53.04758 8.88921 872 ft 110 kts 271°
2026-04-25 08:59 53.04753 8.87691 848 ft 102 kts 273°
2026-04-25 08:59 53.04766 8.86480 696 ft 106 kts 273°
2026-04-25 08:59 53.04759 8.85291 625 ft 105 kts 271°
2026-04-25 08:59 53.04743 8.84055 537 ft 102 kts 276°
2026-04-25 09:00 53.04746 8.82953 401 ft 88 kts 272°
2026-04-25 09:00 53.04736 8.81941 202 ft 86 kts 272°
2026-04-25 09:00 53.04727 8.80983 93 ft 78 kts 270°
2026-04-25 09:00 53.04701 8.79916 100 ft 118 kts 270°
2026-04-25 09:01 53.04653 8.78570 712 ft 113 kts 268°
2026-04-25 09:01 53.04606 8.77690 1260 ft 119 kts 267°
2026-04-25 09:01 53.04414 8.75735 2327 ft 138 kts 253°
2026-04-25 09:01 53.04130 8.74742 2861 ft 144 kts 242°
2026-04-25 09:02 53.03177 8.73847 2987 ft 181 kts 192°
2026-04-25 09:02 53.01984 8.74349 2990 ft 183 kts 144°
2026-04-25 09:02 53.01313 8.76062 2992 ft 175 kts 95°
2026-04-25 09:02 53.01427 8.77950 2989 ft 162 kts 70°
2026-04-25 09:03 53.01675 8.79835 2989 ft 184 kts 69°
2026-04-25 09:03 53.02056 8.82142 2990 ft 227 kts 69°
2026-04-25 09:03 53.02519 8.84769 2998 ft 241 kts 69°
2026-04-25 09:03 53.02970 8.87357 2989 ft 249 kts 69°